Vorticity
10 10 10 11 11 11 10 10 9 8 8 9 9 9 8 8 8 8 9 10 10 11 12 15 16 17 18 19 18 17 17 16 16 15 15 15 16 18 17 14 7 2 -1 -3 -3 -2 1 5 10 13 12 8 4 5 8 12 10 7 4 3 4 4 5 6 6 7 7 7 6
11 12 12 13 12 11 10 9 9 8 8 8 8 8 8 8 8 9 10 11 12 13 15 18 19 19 18 17 15 15 15 15 15 14 13 12 12 13 12 9 4 0 -2 -3 -0 4 9 13 14 11 7 3 2 4 6 6 3 2 1 2 3 4 5 6 7 7 7 6 6
13 14 14 13 11 10 9 8 8 8 8 8 8 8 8 9 9 9 11 12 14 16 18 19 17 15 12 8 7 8 9 10 10 9 9 8 7 8 7 5 3 2 2 4 7 10 12 12 9 5 2 0 2 3 4 3 2 1 1 2 3 5 7 8 8 7 7 6 5
15 14 13 11 10 8 8 8 8 8 8 8 8 8 8 8 9 11 12 14 16 18 18 16 11 6 2 -1 -1 -0 1 2 4 5 5 5 4 4 4 4 4 5 7 8 10 11 10 9 6 4 3 2 2 3 3 2 1 0 1 3 5 7 8 9 8 7 6 6 5
15 13 12 10 9 8 8 8 8 8 8 8 8 9 9 9 10 12 13 14 15 14 13 9 4 0 -2 -3 -3 -3 -2 -0 1 3 4 4 3 4 4 6 7 8 9 10 11 11 10 8 7 5 4 2 2 2 1 -0 -0 1 4 6 8 9 9 8 7 6 5 4 4
14 13 12 11 10 9 9 9 9 9 9 9 9 9 9 10 12 12 12 12 11 10 7 3 1 0 0 -0 -0 -0 -0 0 2 3 5 6 8 9 10 10 10 11 12 14 13 11 9 7 5 4 2 1 0 -1 -1 -1 1 4 6 8 8 8 7 6 4 4 4 3 4
13 12 12 11 10 10 9 9 9 9 9 8 9 9 11 12 14 14 12 10 10 7 3 -0 1 4 6 6 4 3 3 3 5 9 13 16 17 15 11 9 11 14 16 15 12 9 6 4 2 0 -1 -1 -2 -2 -0 2 5 7 8 7 6 5 4 4 4 4 4 5 5
13 12 11 10 10 10 9 9 9 9 10 10 11 13 15 17 18 17 15 14 10 4 -0 -2 1 5 8 9 8 8 9 11 15 21 25 26 18 10 6 8 14 16 15 11 7 4 2 -0 -1 -2 -2 -2 -1 1 4 6 8 7 6 5 4 4 4 4 5 6 7 7 7
12 11 10 10 11 11 10 10 10 11 12 13 16 19 21 22 20 18 16 13 7 1 -3 -5 0 7 13 16 16 16 17 19 24 28 28 21 7 1 3 11 14 13 8 3 1 -1 -2 -2 -2 -2 -1 1 4 6 7 7 6 5 4 4 4 4 6 6 7 8 8 8 8
11 11 11 12 12 12 12 12 13 14 15 17 20 22 23 22 18 15 11 8 1 -5 -9 -9 1 13 23 28 23 20 18 19 23 22 17 5 -3 -2 4 11 8 4 -0 -3 -3 -3 -3 -2 -1 1 3 6 6 6 5 4 4 4 4 6 6 7 8 8 9 9 9 9 8
12 13 13 13 14 14 14 15 16 17 19 20 22 23 22 18 14 9 5 -0 -7 -11 -11 -3 11 24 33 35 27 20 15 14 15 12 7 -1 -2 1 5 4 0 -3 -4 -5 -4 -2 -1 1 3 4 5 5 4 3 3 3 5 6 7 8 8 9 9 9 9 8 8 8 7
14 14 15 15 15 16 16 17 17 18 20 21 21 20 17 12 7 2 -4 -9 -13 -9 -0 13 25 33 36 34 28 22 16 13 11 8 5 2 2 2 0 -3 -5 -6 -5 -4 -2 0 2 3 3 3 3 3 3 4 5 6 7 8 9 9 9 9 8 7 7 7 6 6 5
16 16 17 17 18 18 18 18 18 18 19 19 17 13 9 3 -2 -6 -10 -11 -5 6 18 29 33 32 29 27 24 21 17 14 12 9 6 3 0 -3 -6 -8 -7 -5 -3 -1 0 2 2 3 3 3 4 4 6 7 8 9 9 9 9 8 8 7 6 5 5 4 3 2 2
18 19 19 19 19 18 18 17 16 16 15 13 9 5 0 -4 -6 -6 -3 4 15 25 31 32 27 22 17 15 14 13 13 11 9 6 3 -1 -5 -7 -8 -7 -5 -3 -1 1 2 3 3 4 5 6 7 8 9 10 10 10 9 8 7 6 5 4 3 2 2 1 1 2 2
20 20 19 18 17 16 15 14 13 11 9 7 4 1 -1 -0 4 10 17 25 30 31 29 23 15 10 6 5 6 7 7 7 6 3 -0 -4 -5 -6 -5 -3 -1 1 3 4 5 6 7 8 9 10 10 10 10 9 9 8 7 5 4 3 2 2 2 1 2 3 4 5 6
20 19 17 15 13 12 12 12 11 11 10 10 10 10 13 17 21 26 29 30 28 24 18 12 7 4 3 3 4 5 6 5 4 2 0 -1 -1 0 1 3 4 6 7 8 9 10 10 11 11 10 10 9 7 6 5 4 3 2 2 2 2 3 4 4 6 7 8 9 10
18 17 15 13 13 13 15 16 18 19 20 21 23 25 26 27 27 26 24 20 16 12 9 6 4 4 4 4 5 5 5 4 4 3 3 4 5 6 7 9 10 10 11 11 10 10 9 8 7 6 5 4 3 2 2 1 2 2 3 5 6 7 8 9 10 10 11 11 10
18 18 18 18 18 20 21 23 24 25 26 27 27 26 25 22 19 16 12 9 6 4 3 3 3 3 3 4 4 4 5 5 6 7 8 9 10 11 11 12 11 11 10 9 8 6 5 4 3 2 2 2 2 3 4 5 6 7 8 9 10 10 11 11 10 10 9 9 8
21 21 22 22 21 21 21 20 20 19 19 18 16 15 13 11 8 6 4 2 1 1 1 2 2 3 4 5 7 8 9 10 11 11 12 12 12 11 10 9 8 6 5 4 3 2 2 2 2 3 4 5 6 7 9 10 10 10 11 11 10 10 9 8 8 7 7 6 6
20 19 19 17 16 14 13 11 10 8 7 6 5 4 3 2 2 2 2 2 3 4 5 6 7 8 9 10 11 11 11 11 11 10 9 8 7 6 4 3 3 2 2 2 3 3 4 5 6 8 9 10 10 11 11 10 10 9 9 8 7 7 6 6 6 6 6 6 7
12 11 10 9 8 6 5 4 3 2 2 1 1 2 2 3 4 6 7 8 9 10 10 11 11 11 10 10 9 8 7 6 5 4 3 2 2 2 2 3 3 4 5 6 7 8 9 10 10 10 10 10 10 9 8 8 7 7 6 6 6 6 6 7 7 7 7 7 7
6 5 5 4 4 4 3 3 3 4 4 5 6 7 8 9 10 11 11 11 11 11 10 9 8 7 6 5 4 3 2 2 2 2 3 3 4 5 6 7 8 9 10 10 10 10 10 10 9 8 8 7 7 6 6 6 6 6 7 7 7 8 8 8 8 7 7 7 7
5 5 5 5 6 6 7 7 7 8 9 9 10 10 10 10 10 9 8 7 7 6 5 4 3 3 3 2 3 3 4 4 5 6 7 8 9 9 10 10 10 10 9 9 8 8 7 7 6 6 6 6 6 6 7 7 7 7 8 8 8 8 7 7 7 6 6 6 5
7 8 8 9 9 9 9 9 9 9 8 8 8 7 6 5 4 3 2 2 2 2 2 3 3 4 5 6 7 8 8 9 9 10 10 10 9 9 8 8 7 7 6 6 6 6 6 6 6 7 7 7 7 8 8 8 7 7 7 7 7 6 6 6 5 5 5 5 5
8 8 8 8 8 7 7 6 5 5 4 3 3 2 1 1 1 1 2 3 4 5 6 7 8 8 9 9 10 10 10 9 9 8 8 7 6 6 6 6 6 6 6 6 7 7 7 7 8 8 8 8 7 7 7 7 6 6 6 5 5 5 5 5 5 5 5 5 5
6 5 5 4 4 3 2 2 2 1 1 1 2 2 2 3 4 5 6 7 8 9 9 9 9 9 9 9 8 7 7 6 6 6 5 5 6 6 6 6 7 7 8 8 8 8 8 8 7 7 7 6 6 6 5 5 5 5 5 5 5 5 5 5 5 5 5 5 5
2 2 1 1 1 1 1 1 2 3 3 4 5 6 7 7 8 9 9 9 9 9 8 8 7 6 6 5 5 5 5 5 6 6 6 7 7 8 8 8 8 8 8 8 7 7 7 6 6 5 5 5 5 4 5 5 5 5 5 5 5 5 5 5 5 5 5 5 5
1 1 2 2 3 3 4 5 6 7 8 8 9 9 10 10 10 9 8 7 7 6 5 5 5 5 5 5 6 7 7 7 8 8 8 8 8 8 8 7 7 7 6 6 6 5 5 5 5 5 4 4 4 5 5 5 5 5 5 5 5 5 5 4 4 4 4 3 3
4 5 5 6 7 8 8 9 10 10 10 10 10 9 8 7 6 6 5 5 5 5 5 6 7 7 8 8 8 8 8 8 8 8 7 7 7 6 6 6 5 5 5 5 5 5 5 5 5 5 5 5 5 5 5 5 5 5 4 4 4 4 4 3 3 2 2 2 2
8 9 9 10 10 10 10 10 9 9 8 7 6 6 5 5 5 6 6 7 7 8 8 8 8 8 8 8 7 7 7 6 6 6 5 5 5 5 5 4 4 4 5 5 5 5 5 5 5 5 5 5 5 5 5 4 4 4 3 3 3 3 2 2 2 2 2 1 1
10 10 10 10 9 8 7 7 6 6 5 5 6 6 7 7 8 8 8 8 8 8 8 7 7 6 6 5 5 5 5 4 4 4 4 5 5 5 5 5 5 5 5 5 5 5 5 5 5 4 4 4 4 4 4 3 3 3 2 2 2 2 2 2 2 2 2 2 2
8 8 7 7 6 6 6 6 6 7 7 8 8 8 8 8 8 8 7 7 6 6 5 5 5 4 4 4 4 4 4 4 4 4 5 5 5 5 4 5 5 5 5 5 4 4 4 4 4 4 3 3 3 3 3 2 2 2 2 2 2 2 2 2 2 2 2 3 3
6 6 6 6 7 7 8 8 8 8 8 8 8 7 7 6 6 5 5 4 4 4 4 4 4 4 4 4 4 4 4 4 4 4 4 4 4 4 4 4 4 4 4 4 4 4 3 3 3 3 3 3 3 3 2 2 2 2 2 2 2 2 2 2 2 3 3 3 3
7 8 8 8 8 8 8 8 7 7 6 6 6 5 5 4 4 4 4 4 4 4 4 4 4 4 4 4 4 4 4 4 4 4 4 4 4 4 4 4 4 4 3 3 3 3 3 3 3 3 3 3 3 3 2 2 2 2 2 2 2 2 2 3 3 3 3 3 3
8 8 8 7 7 6 6 5 5 4 4 4 4 4 3 3 3 3 3 3 3 3 4 4 4 4 4 4 4 4 4 4 4 4 4 4 4 4 4 4 4 4 3 3 3 3 3 3 3 3 3 3 3 3 2 2 2 2 2 2 2 3 3 3 3 3 3 3 4
6 6 5 5 4 4 4 3 3 3 3 3 3 3 3 3 3 3 3 3 3 3 4 3 4 4 4 4 4 4 4 4 4 4 4 4 4 4 4 4 4 4 4 3 3 3 3 3 3 3 3 3 3 2 2 2 2 2 2 2 3 3 3 3 4 4 4 4 4
4 4 3 3 3 3 3 3 3 3 3 3 3 3 3 3 3 3 3 3 4 4 4 4 4 4 4 4 4 4 4 4 4 4 4 4 4 4 4 4 4 4 4 4 3 3 3 3 3 3 3 2 2 2 2 2 2 3 3 3 3 4 4 4 4 4 4 4 4
3 3 3 3 3 3 3 3 3 3 3 3 3 3 3 4 4 4 4 4 4 5 5 5 5 5 5 5 5 5 5 5 4 4 4 4 4 4 4 4 4 4 4 3 3 3 3 3 3 3 2 2 3 3 3 3 3 4 4 4 4 5 5 5 5 4 4 4 4
3 3 3 3 3 3 3 3 3 4 4 4 4 4 4 4 5 5 5 5 5 5 5 5 5 5 5 5 5 5 5 5 5 4 4 4 4 3 3 3 3 3 3 3 3 3 3 3 3 3 3 3 3 4 4 4 4 5 5 5 5 5 5 4 4 4 4 3 3
3 3 3 3 3 4 4 4 4 4 4 4 5 5 5 5 5 5 5 5 5 5 5 5 5 5 5 5 5 5 5 5 4 4 4 3 3 3 3 3 3 3 3 3 3 3 3 3 3 4 4 4 4 5 5 5 5 5 5 5 5 4 4 4 3 3 3 3 2
4 4 4 4 4 4 4 4 4 5 5 5 5 5 5 5 5 5 5 5 5 5 5 5 5 5 4 4 4 4 4 4 4 4 3 3 3 3 3 3 3 3 3 3 3 3 3 4 4 4 5 5 5 5 5 5 5 5 5 4 4 3 3 3 3 2 2 2 2
Height
5685 5687 5689 5690 5692 5694 5695 5695 5696 5697 5698 5699 5700 5701 5702 5703 5704 5705 5705 5706 5707 5708 5709 5709 5709 5710 5710 5711 5712 5712 5712 5713 5714 5714 5715 5715 5715 5715 5716 5717 5717 5718 5719 5719 5719 5719 5719 5719 5718 5717 5717 5717 5717 5717 5717 5717 5717 5717 5716 5716 5715 5714 5714 5713 5712 5711 5710 5709 5708
5682 5684 5686 5688 5689 5691 5691 5692 5693 5694 5695 5696 5697 5698 5699 5700 5702 5703 5704 5704 5705 5706 5706 5707 5707 5708 5708 5709 5709 5709 5710 5710 5711 5712 5712 5712 5712 5713 5714 5715 5716 5716 5716 5716 5715 5715 5715 5715 5714 5714 5714 5714 5714 5714 5715 5715 5714 5714 5713 5712 5712 5711 5710 5709 5708 5707 5706 5705 5704
5679 5682 5684 5685 5686 5687 5688 5689 5690 5691 5692 5693 5694 5696 5697 5699 5699 5700 5700 5702 5702 5703 5704 5705 5705 5706 5706 5706 5707 5707 5707 5708 5709 5709 5710 5710 5710 5711 5713 5713 5714 5714 5713 5713 5712 5712 5712 5712 5711 5711 5711 5711 5712 5712 5712 5712 5711 5710 5709 5708 5708 5707 5705 5704 5703 5703 5702 5701 5700
5677 5679 5680 5682 5683 5684 5685 5686 5687 5688 5689 5691 5692 5693 5694 5695 5696 5697 5698 5699 5700 5701 5703 5704 5704 5704 5704 5704 5705 5705 5705 5706 5707 5707 5708 5708 5709 5710 5710 5711 5711 5710 5710 5709 5709 5709 5709 5708 5708 5708 5708 5709 5709 5709 5709 5708 5707 5706 5705 5704 5703 5702 5701 5700 5700 5699 5699 5698 5698
5674 5675 5677 5678 5679 5681 5682 5683 5684 5686 5687 5688 5689 5690 5691 5693 5694 5695 5695 5696 5698 5700 5701 5702 5703 5703 5703 5704 5703 5703 5703 5704 5705 5705 5706 5706 5706 5706 5706 5706 5706 5706 5706 5706 5706 5705 5705 5705 5705 5705 5705 5705 5706 5705 5704 5704 5703 5702 5701 5700 5699 5699 5698 5697 5696 5696 5696 5695 5694
5670 5672 5674 5675 5677 5678 5679 5680 5682 5683 5684 5685 5687 5688 5689 5690 5691 5692 5693 5694 5695 5696 5697 5699 5699 5700 5700 5701 5701 5701 5701 5701 5702 5702 5702 5701 5701 5701 5702 5702 5702 5702 5702 5702 5702 5702 5702 5702 5702 5702 5702 5703 5702 5701 5700 5699 5699 5698 5697 5696 5696 5695 5694 5694 5693 5693 5692 5692 5691
5668 5669 5671 5672 5674 5675 5677 5678 5679 5680 5682 5683 5684 5686 5687 5688 5689 5689 5690 5691 5692 5693 5694 5695 5696 5697 5698 5699 5699 5698 5698 5698 5697 5697 5697 5697 5698 5698 5699 5699 5699 5699 5699 5699 5699 5699 5699 5699 5699 5699 5699 5699 5698 5698 5697 5696 5695 5694 5694 5693 5693 5692 5691 5691 5690 5689 5689 5688 5688
5664 5666 5668 5670 5671 5673 5674 5676 5677 5679 5680 5681 5683 5684 5685 5686 5686 5687 5688 5689 5690 5691 5692 5694 5694 5694 5695 5695 5694 5694 5694 5694 5694 5694 5694 5694 5695 5695 5695 5695 5696 5696 5696 5696 5696 5696 5696 5697 5697 5696 5696 5696 5695 5694 5694 5693 5692 5691 5691 5690 5689 5689 5688 5688 5687 5686 5686 5685 5684
5662 5664 5666 5668 5670 5671 5672 5674 5675 5676 5678 5679 5680 5681 5682 5683 5684 5685 5685 5686 5687 5688 5689 5690 5691 5691 5691 5691 5691 5691 5691 5691 5692 5692 5692 5692 5692 5692 5692 5692 5693 5693 5693 5693 5694 5694 5694 5694 5694 5693 5693 5693 5692 5691 5691 5690 5689 5689 5688 5687 5686 5685 5685 5684 5684 5683 5682 5682 5681
5660 5663 5664 5666 5667 5669 5670 5672 5673 5674 5675 5676 5678 5679 5680 5681 5682 5683 5684 5684 5685 5686 5686 5687 5687 5688 5689 5689 5689 5689 5690 5690 5690 5690 5690 5690 5689 5689 5690 5690 5690 5690 5690 5690 5691 5691 5691 5691 5690 5690 5690 5689 5689 5688 5687 5687 5686 5685 5684 5684 5683 5682 5681 5681 5680 5679 5679 5678 5677
5659 5661 5662 5664 5665 5666 5668 5669 5670 5672 5673 5674 5675 5676 5678 5679 5680 5681 5682 5682 5683 5684 5684 5685 5685 5686 5686 5686 5687 5687 5687 5688 5688 5688 5688 5687 5687 5688 5688 5688 5688 5688 5688 5688 5688 5688 5688 5688 5687 5687 5687 5686 5685 5685 5684 5684 5683 5682 5681 5680 5679 5679 5678 5677 5677 5676 5675 5674 5674
5657 5659 5660 5662 5663 5664 5666 5667 5669 5670 5671 5672 5673 5674 5676 5677 5678 5679 5680 5681 5681 5682 5682 5683 5683 5683 5683 5684 5684 5684 5684 5684 5685 5685 5685 5685 5685 5685 5686 5686 5685 5685 5685 5685 5685 5685 5685 5684 5684 5684 5683 5683 5682 5681 5681 5680 5679 5679 5678 5677 5676 5675 5674 5674 5673 5673 5672 5671 5670
5656 5657 5659 5660 5661 5663 5664 5665 5666 5668 5669 5670 5672 5673 5674 5675 5676 5677 5678 5679 5679 5679 5679 5679 5680 5680 5680 5680 5681 5681 5682 5682 5682 5683 5683 5683 5683 5684 5684 5683 5683 5683 5683 5683 5682 5682 5682 5681 5681 5680 5680 5679 5679 5678 5677 5676 5676 5675 5674 5674 5673 5672 5671 5670 5669 5669 5668 5667 5666
5654 5656 5657 5659 5660 5661 5662 5664 5665 5666 5667 5669 5670 5671 5672 5673 5674 5675 5675 5676 5676 5676 5677 5677 5677 5677 5678 5678 5679 5679 5679 5680 5680 5681 5681 5681 5681 5681 5681 5681 5681 5680 5680 5680 5679 5679 5678 5678 5677 5677 5676 5676 5675 5674 5674 5673 5672 5671 5671 5670 5669 5668 5668 5667 5666 5665 5664 5663 5662
5653 5654 5656 5657 5659 5660 5661 5662 5664 5665 5666 5667 5669 5669 5670 5671 5672 5672 5673 5673 5673 5674 5674 5674 5675 5675 5676 5676 5677 5677 5678 5678 5679 5679 5679 5679 5679 5679 5679 5678 5678 5678 5677 5677 5676 5675 5675 5674 5674 5673 5673 5672 5671 5671 5670 5669 5669 5668 5667 5666 5665 5665 5664 5663 5662 5661 5660 5659 5658
5652 5653 5655 5656 5658 5659 5660 5661 5662 5664 5665 5666 5667 5667 5668 5669 5669 5670 5670 5671 5671 5672 5672 5673 5674 5674 5674 5675 5675 5676 5676 5676 5676 5677 5677 5676 5676 5676 5675 5675 5675 5674 5674 5673 5673 5672 5671 5671 5670 5669 5669 5669 5668 5667 5667 5666 5665 5664 5664 5663 5662 5661 5660 5659 5658 5657 5656 5655 5654
5651 5653 5654 5656 5657 5658 5659 5660 5661 5662 5663 5664 5664 5665 5666 5666 5667 5668 5669 5669 5670 5670 5671 5671 5672 5672 5673 5673 5674 5674 5674 5674 5674 5674 5674 5674 5673 5673 5672 5672 5671 5671 5670 5670 5669 5669 5668 5668 5667 5666 5666 5665 5664 5664 5663 5662 5662 5661 5660 5659 5658 5657 5656 5655 5654 5653 5652 5651 5650
5650 5652 5654 5655 5656 5657 5658 5659 5659 5660 5661 5662 5663 5663 5664 5665 5666 5666 5667 5668 5668 5669 5669 5670 5670 5670 5671 5671 5671 5671 5671 5671 5671 5671 5671 5670 5670 5669 5669 5669 5668 5668 5667 5667 5666 5665 5665 5664 5664 5663 5663 5662 5661 5660 5659 5659 5658 5657 5656 5655 5654 5653 5652 5651 5650 5649 5648 5647 5646
5650 5651 5653 5654 5654 5655 5656 5657 5658 5659 5659 5660 5661 5662 5663 5664 5664 5665 5665 5666 5666 5667 5667 5668 5668 5668 5668 5668 5668 5669 5668 5668 5668 5668 5668 5667 5667 5666 5666 5665 5665 5664 5664 5664 5663 5663 5662 5661 5660 5660 5659 5658 5657 5657 5656 5655 5654 5653 5652 5651 5650 5649 5648 5647 5646 5645 5644 5643 5641
5649 5650 5651 5653 5654 5654 5655 5656 5657 5658 5659 5659 5660 5661 5661 5662 5663 5663 5664 5664 5664 5664 5665 5665 5665 5665 5665 5665 5666 5665 5665 5665 5665 5665 5664 5664 5664 5663 5663 5663 5662 5661 5661 5660 5660 5659 5659 5658 5657 5656 5655 5654 5654 5653 5652 5651 5650 5649 5648 5647 5646 5645 5644 5643 5641 5640 5639 5638 5637
5649 5650 5651 5652 5653 5653 5654 5655 5655 5656 5657 5658 5658 5659 5659 5660 5660 5661 5661 5662 5662 5662 5663 5663 5663 5663 5663 5663 5663 5663 5663 5662 5662 5662 5661 5661 5661 5660 5660 5659 5659 5658 5658 5657 5656 5655 5655 5654 5653 5652 5652 5651 5650 5649 5648 5647 5646 5645 5644 5643 5642 5640 5639 5638 5637 5636 5634 5633 5632
5648 5649 5650 5650 5651 5652 5653 5653 5654 5654 5655 5656 5656 5657 5658 5658 5659 5659 5659 5660 5660 5660 5660 5661 5661 5661 5661 5660 5660 5660 5660 5659 5659 5659 5658 5658 5657 5657 5656 5656 5655 5654 5654 5653 5653 5652 5651 5650 5649 5649 5648 5647 5646 5645 5644 5643 5642 5641 5640 5639 5637 5636 5635 5634 5632 5631 5629 5628 5627
5647 5648 5648 5649 5649 5650 5651 5652 5652 5653 5654 5654 5655 5655 5656 5657 5657 5657 5658 5658 5658 5658 5658 5658 5658 5658 5658 5658 5658 5657 5657 5656 5656 5655 5655 5654 5654 5654 5653 5652 5652 5651 5650 5650 5649 5649 5648 5647 5646 5645 5644 5644 5642 5641 5640 5639 5638 5637 5635 5634 5633 5632 5630 5629 5628 5626 5624 5623 5621
5646 5646 5647 5648 5649 5649 5650 5651 5651 5652 5653 5653 5654 5654 5654 5655 5655 5655 5656 5656 5656 5656 5656 5656 5655 5655 5655 5655 5654 5654 5654 5653 5653 5653 5652 5651 5651 5650 5650 5649 5649 5648 5647 5646 5646 5645 5644 5643 5642 5642 5641 5639 5639 5637 5636 5635 5634 5633 5631 5630 5629 5627 5626 5624 5623 5621 5619 5618 5616
5645 5646 5647 5647 5648 5649 5649 5650 5650 5651 5651 5652 5652 5653 5653 5653 5653 5653 5653 5653 5653 5653 5653 5653 5653 5653 5652 5652 5652 5651 5651 5650 5650 5650 5649 5649 5648 5647 5647 5646 5645 5644 5644 5643 5642 5641 5640 5639 5639 5638 5637 5635 5634 5633 5632 5631 5629 5628 5627 5625 5624 5622 5621 5619 5617 5615 5614 5612 5610
5645 5645 5646 5647 5647 5648 5648 5649 5649 5649 5650 5650 5650 5650 5651 5651 5651 5651 5651 5651 5651 5651 5651 5650 5650 5650 5650 5649 5649 5649 5648 5648 5647 5647 5646 5646 5645 5644 5644 5643 5642 5641 5640 5639 5638 5637 5636 5635 5634 5634 5633 5631 5630 5629 5628 5626 5625 5623 5622 5620 5619 5617 5616 5614 5612 5610 5608 5606 5605
5644 5645 5645 5646 5646 5647 5647 5647 5648 5648 5648 5648 5649 5649 5649 5649 5649 5649 5649 5649 5649 5649 5648 5648 5648 5648 5647 5647 5646 5646 5645 5645 5644 5644 5643 5643 5642 5641 5640 5639 5639 5637 5636 5635 5634 5634 5632 5631 5630 5629 5628 5627 5626 5624 5623 5622 5620 5619 5617 5615 5614 5612 5610 5609 5607 5605 5603 5601 5599
5643 5644 5644 5644 5645 5645 5645 5646 5646 5646 5647 5647 5647 5647 5647 5647 5647 5647 5647 5647 5647 5647 5646 5646 5646 5645 5645 5644 5644 5643 5643 5642 5641 5641 5640 5639 5638 5638 5637 5636 5635 5634 5633 5631 5630 5629 5628 5627 5626 5625 5624 5623 5621 5620 5618 5617 5615 5613 5612 5610 5608 5607 5605 5603 5601 5599 5598 5595 5594
5642 5643 5643 5644 5644 5644 5644 5645 5645 5645 5645 5646 5646 5646 5646 5646 5646 5646 5646 5645 5645 5645 5644 5644 5644 5643 5642 5642 5641 5641 5640 5639 5638 5638 5637 5636 5635 5634 5633 5632 5631 5629 5629 5627 5626 5625 5624 5622 5621 5620 5619 5618 5616 5615 5613 5612 5610 5608 5606 5604 5603 5601 5599 5597 5595 5593 5591 5589 5587
5641 5642 5642 5643 5643 5643 5644 5644 5644 5644 5644 5644 5644 5644 5644 5644 5644 5644 5644 5644 5643 5643 5642 5642 5641 5640 5640 5639 5639 5638 5637 5636 5635 5634 5633 5632 5631 5630 5629 5628 5626 5625 5624 5623 5621 5620 5619 5617 5616 5615 5614 5612 5611 5609 5608 5606 5604 5602 5600 5598 5596 5594 5592 5590 5589 5587 5585 5583 5581
5641 5641 5642 5642 5642 5643 5643 5643 5643 5643 5643 5643 5643 5643 5643 5643 5642 5642 5642 5641 5641 5640 5639 5639 5639 5638 5637 5636 5635 5634 5634 5633 5632 5630 5629 5628 5627 5626 5624 5623 5622 5621 5619 5618 5616 5615 5614 5612 5611 5609 5608 5606 5605 5603 5601 5599 5598 5596 5594 5591 5589 5587 5585 5584 5582 5580 5578 5576 5574
5640 5641 5641 5641 5641 5641 5641 5641 5641 5641 5641 5641 5641 5641 5641 5640 5640 5640 5639 5639 5638 5638 5637 5636 5635 5635 5634 5633 5632 5631 5630 5629 5628 5626 5625 5624 5623 5621 5620 5619 5617 5616 5614 5613 5611 5609 5608 5606 5605 5603 5601 5600 5598 5596 5595 5593 5591 5589 5587 5585 5583 5581 5579 5577 5575 5573 5571 5569 5567
5639 5639 5640 5640 5640 5640 5640 5640 5640 5640 5639 5639 5639 5639 5639 5638 5638 5637 5637 5636 5635 5635 5634 5633 5632 5631 5630 5629 5628 5627 5626 5625 5624 5622 5621 5620 5618 5617 5615 5614 5612 5611 5609 5607 5605 5604 5602 5600 5598 5597 5595 5594 5592 5590 5589 5587 5585 5583 5581 5579 5577 5575 5573 5571 5569 5567 5565 5563 5561
5638 5638 5639 5639 5639 5639 5638 5638 5638 5638 5638 5638 5637 5637 5636 5636 5635 5634 5634 5633 5632 5631 5630 5630 5629 5628 5627 5626 5624 5624 5622 5621 5619 5618 5617 5615 5614 5612 5610 5609 5607 5605 5604 5602 5600 5598 5596 5594 5592 5591 5589 5588 5586 5584 5583 5581 5579 5578 5576 5574 5572 5569 5567 5565 5563 5561 5559 5557 5554
5637 5637 5637 5637 5637 5637 5637 5637 5636 5636 5636 5635 5635 5634 5634 5633 5632 5632 5631 5630 5629 5628 5627 5626 5625 5624 5623 5622 5621 5619 5618 5617 5615 5614 5612 5610 5609 5607 5605 5603 5601 5600 5598 5596 5594 5592 5590 5589 5587 5585 5584 5582 5581 5579 5578 5576 5574 5572 5570 5568 5566 5564 5562 5559 5557 5554 5552 5550 5547
5636 5636 5636 5636 5635 5635 5635 5634 5634 5634 5633 5633 5632 5632 5631 5630 5629 5629 5628 5627 5626 5625 5624 5623 5622 5620 5619 5618 5616 5615 5614 5612 5610 5609 5607 5605 5604 5602 5600 5598 5596 5594 5593 5591 5589 5587 5585 5584 5582 5580 5579 5577 5575 5574 5572 5571 5569 5567 5565 5563 5560 5558 5555 5553 5550 5548 5545 5543 5540
5634 5634 5634 5634 5634 5633 5633 5632 5632 5631 5630 5630 5629 5629 5628 5627 5626 5625 5624 5623 5622 5621 5620 5619 5618 5616 5615 5614 5612 5610 5609 5607 5606 5604 5602 5601 5599 5597 5595 5594 5591 5589 5588 5586 5584 5583 5581 5579 5577 5575 5574 5572 5570 5569 5567 5565 5563 5561 5559 5557 5554 5551 5549 5546 5544 5541 5538 5535 5532
5632 5632 5632 5632 5631 5631 5630 5629 5629 5629 5628 5627 5626 5625 5625 5624 5623 5622 5621 5619 5619 5617 5616 5615 5614 5612 5611 5609 5608 5606 5604 5603 5601 5600 5598 5596 5595 5593 5591 5589 5587 5585 5583 5582 5579 5578 5575 5573 5571 5569 5568 5566 5564 5563 5561 5559 5557 5554 5552 5550 5547 5544 5542 5539 5536 5533 5530 5527 5524
5630 5630 5629 5629 5629 5628 5628 5627 5626 5626 5625 5624 5623 5622 5621 5620 5619 5618 5617 5616 5615 5614 5612 5611 5609 5608 5607 5605 5604 5602 5600 5599 5597 5595 5594 5592 5590 5589 5587 5585 5583 5581 5579 5577 5574 5572 5570 5568 5565 5563 5561 5560 5558 5556 5554 5552 5550 5548 5545 5543 5540 5537 5534 5531 5528 5525 5522 5518 5515
5628 5627 5627 5626 5626 5625 5625 5624 5624 5623 5622 5621 5620 5619 5618 5617 5616 5615 5614 5613 5611 5610 5609 5608 5606 5604 5603 5602 5600 5598 5596 5594 5593 5591 5589 5588 5586 5584 5582 5580 5578 5576 5574 5571 5569 5567 5564 5562 5559 5557 5554 5553 5551 5549 5547 5544 5542 5540 5537 5535 5532 5529 5526 5523 5520 5517 5514 5510 5506
5625 5625 5624 5624 5624 5623 5622 5622 5621 5620 5619 5618 5617 5616 5615 5614 5613 5612 5610 5609 5608 5607 5605 5604 5603 5601 5599 5598 5596 5595 5593 5591 5589 5587 5585 5583 5581 5579 5577 5575 5573 5570 5568 5566 5563 5560 5558 5555 5552 5550 5547 5545 5543 5541 5539 5537 5534 5532 5529 5526 5524 5521 5518 5514 5511 5508 5504 5501 5497